Hourly Data Report for May 02, 2021

WIARTON A
ONTARIO
Current Station Operator: NAVCAN

44°44'39.000" N
81°06'31.000" W
221.90 m
6119499
71633
YVV

Download Data

Hourly Data (May 2021)
Hourly Data Report for May 2, 2021
TIME
LST
Temp Definition
°C
Dew Point Definition
°C
Rel Hum Definition
%
Precip. Amount Definition
mm

Wind Dir Definition
10's deg

Wind Spd Definition
km/h
Visibility Definition
km
Stn Press Definition
kPa
Hmdx Definition


Wind Chill Definition


Weather Definition


00:00 10.2 3.9 65   25 11 24.1 97.63     LegendNANA
01:00 8.7 3.7 71   25 9 24.1 97.65     Mainly Clear
02:00 5.5 2.8 83   36 2 24.1 97.66     LegendNANA
03:00 4.6 2.9 89   17 7 24.1 97.69     LegendNANA
04:00 3.6 2.7 94   36 1 24.1 97.77     Mostly Cloudy
05:00 7.7 2.9 72   5 5 24.1 97.87     LegendNANA
06:00 8.3 2.5 67   6 12 24.1 97.82     LegendNANA
07:00 8.3 2.2 65   7 17 24.1 97.93     Cloudy
08:00 8.8 3.0 67   10 4 16.1 98.05     Rain Showers
09:00 9.7 4.3 69   14 14 19.3 98.00     Rain Showers
10:00 12.2 5.4 63   14 12 24.1 97.96     Cloudy
11:00 13.3 5.4 58   16 7 24.1 98.02     LegendNANA
12:00 10.8 5.6 70   4 14 24.1 98.04     LegendNANA
13:00 9.2 4.1 70   9 13 24.1 98.08     Cloudy
14:00 9.8 4.4 69   7 15 24.1 98.12     LegendNANA
15:00 10.5 5.2 70   3 5 24.1 98.09     LegendNANA
16:00 10.1 6.2 77   5 7 19.3 98.12     Rain Showers
17:00 7.7 5.8 88   36 5 12.9 98.16     Rain
18:00 9.5 8.0 90   7 8 4.8 98.19     Rain Showers, Fog
19:00 9.6 8.8 94   9 19 6.4 98.10     Rain Showers, Fog
20:00 10.0 9.4 96   10 10 9.7 98.10     Rain Showers, Fog
21:00 10.2 9.9 98   9 12 6.4 98.17     Rain Showers, Fog
22:00 10.5 9.6 94   11 19 12.9 98.13     Rain Showers
23:00 10.6 9.4 92   11 12 19.3 98.14     Rain Showers

Notes on Data Quality.

Legend

  • E = Estimated
  • M = Missing
  • NA = Not Available*
  • [empty] = Indicates an unobserved value
Date modified: